Regional Weather Roundup
Issued by NWS

Home | Current Version | Previous Version | Graphics & Text | Print | Product List | Glossary On
Versions: 1 2 3 4 5 6 7 8 9 10 11 12 13 14 15 16 17 18 19 20 21 22 23 24 25 26 27 28 29 30 31 32 33 34 35 36 37 38 39 40 41 42 43 44
000
ASUS45 KPSR 251610
RWRAZ

ARIZONA HOURLY REGIONAL WEATHER ROUNDUP
NATIONAL WEATHER SERVICE PHOENIX AZ
900 AM MST THU MAY 25 2017

NOTE: FAIR INDICATES FEW OR NO CLOUDS BELOW 12,000 FEET WITH NO
SIGNIFICANT WEATHER AND/OR OBSTRUCTIONS TO VISIBILITY.

AZZ001>003-036-251700-
NORTHWEST ARIZONA

CITY           SKY/WX    TMP DP  RH WIND       PRES   REMARKS
BULLHEAD CITY  SUNNY     90  19   7 S15       29.56S
KINGMAN        SUNNY     80  29  15 SW22G33   29.71R
$$

AZZ004>008-015-016-018-251700-
NORTH CENTRAL ARIZONA

CITY           SKY/WX    TMP DP  RH WIND       PRES   REMARKS
GRAND CANYON   SUNNY     67  21  17 SW21G29   29.88R
WILLIAMS       SUNNY     68  21  17 SW21G33   29.90S
PRESCOTT       SUNNY     73  17  12 S9        29.85S
FLAGSTAFF      SUNNY     62  21  20 SW23G31   29.93S
PAYSON         SUNNY     73  23  15 SW8G15    29.93R
PAGE           SUNNY     80  22  11 SW9G23    29.66R
$$

AZZ009>014-017-251700-
NORTHEAST ARIZONA

CITY           SKY/WX    TMP DP  RH WIND       PRES   REMARKS
WINSLOW        SUNNY     80  15   8 SW26G33   29.81S
SAINT JOHNS    MOSUNNY   75  14  10 SW18G26   29.88F
WINDOW ROCK    SUNNY     70  21  15 SW23G35   29.90F
SHOW LOW       MOSUNNY   66  16  14 S24G32    29.94S
$$

AZZ540-542>544-546-548-251700-
GREATER PHOENIX AREA

CITY           SKY/WX    TMP DP  RH WIND       PRES   REMARKS
PHOENIX        PTSUNNY   86  31  13 E7        29.67R
BUCKEYE        PTSUNNY   84  36  17 S7        29.69S
GLENDALE       PTSUNNY   84  34  16 SW13      29.70R
LUKE AFB       MOSUNNY   85  34  16 SW12      29.68R
DEER VALLEY    MOSUNNY   84  30  14 W9        29.70R
SCOTTSDALE     MOSUNNY   83  29  14 CALM      29.72R
MESA-FALCON    MOSUNNY   86  30  13 S9        29.71R
MESA-GATEWAY   PTSUNNY   86  27  11 S10       29.72R
CHANDLER       SUNNY     86  27  11 S10       29.70R
$$

AZZ539-553-251700-
SOUTHWEST MARICOPA COUNTY AND PINAL COUNTY

CITY           SKY/WX    TMP DP  RH WIND       PRES   REMARKS
CASA GRANDE    PTSUNNY   87  27  11 S18       29.72R
GILA BEND      SUNNY     88  19   8 SW15      29.67R
$$

AZZ503-504-507>509-251700-
SOUTHEAST ARIZONA

CITY           SKY/WX    TMP DP  RH WIND       PRES   REMARKS
TUCSON         PTSUNNY   87  19   8 S14       29.81R
DAVIS-MONTHAN  CLOUDY    86  20   9 S15       29.81R
RYAN FIELD     SUNNY     88  19   8 SW21G28   29.79R
NOGALES        PTSUNNY   80  19  10 S16G25    29.92R
SIERRA VISTA   MOSUNNY   78  15   9 S18G26    29.93R
DOUGLAS        PTSUNNY   82  13   7 SW22      29.91R
SAFFORD        PTSUNNY   85  21   9 VRB5      29.79R
$$

AZZ532-251700-
SOUTHWEST ARIZONA

CITY           SKY/WX    TMP DP  RH WIND       PRES   REMARKS
YUMA           PTSUNNY   80  21  11 S3        29.66R
$$

CAZ041-043-047-048-061-525>527-560>570-251700-
SOUTHERN CALIFORNIA

CITY           SKY/WX    TMP DP  RH WIND       PRES   REMARKS
DOWNTOWN L.A.  CLOUDY    63  49  60 CALM      29.87R
L.A. AIRPORT   CLOUDY    62  49  62 E6        29.87S
SAN DIEGO      CLOUDY    62  50  64 SW5       29.90R
BURBANK        CLOUDY    60  46  59 SE10      29.86S
ONTARIO        CLOUDY    60  50  69 SW5       29.87R
RIVERSIDE      CLOUDY    61  52  72 CALM      29.87R
PALM SPRINGS   SUNNY     78  40  25 S3        29.63S
EL CENTRO NAS  MOSUNNY   88  13   6 SW17      29.63R
IMPERIAL       LGT RAIN  87  24  10 W17       29.61R
BLYTHE         SUNNY     84  35  17 S3        29.61S
NEEDLES        SUNNY     92  21   7 SW14G20   29.59S
$$

NVZ020-UTZ003-251700-
SOUTHERN NEVADA-UTAH

CITY           SKY/WX    TMP DP  RH WIND       PRES   REMARKS
LAS VEGAS      MOSUNNY   85  23  10 S14G20    29.57R
SALT LAKE CITY PTSUNNY   64  29  26 W12       29.73R
$$

NMZ009-TXZ055-251700-
NEW MEXICO-WEST TEXAS

CITY           SKY/WX    TMP DP  RH WIND       PRES   REMARKS
ALBUQUERQUE    CLOUDY    74  25  16 W12       29.88S
EL PASO        MOSUNNY   83  21  10 SW13G20   29.88R
$$


........................KEY........................
SKY/WX - SKY CONDITION/WEATHER
TMP    - TEMPERATURE IN FAHRENHEIT
DP     - DEW POINT IN FAHRENHEIT
RH     - RELATIVE HUMIDITY IN PERCENT
WIND   - DIRECTION AND SPEED IN MILES PER HOUR (MPH)
VRB    - VARIABLE WIND DIRECTION
PRES   - MEAN SEA LEVEL PRESSURE IN INCHES OF MERCURY
         F - FALLING PRESSURE   R - RISING PRESSURE
         S - STEADY PRESSURE
VSB    - VISIBILITY IN MILES
HX     - HEAT INDEX IN FAHRENHEIT
WCI    - WIND CHILL INDEX IN FAHRENHEIT
TC     - TEMPERATURE IN CELSIUS WHICH IS ALSO KNOWN AS
         TEMPERATURE IN CENTIGRADE
AFB    - AIR FORCE BASE
         LUKE AFB IS LUKE AIR FORCE BASE
         DAVIS-MONTHAN IS DAVIS-MONTHAN AIR FORCE BASE
NAS    - NAVAL AIR STATION
         EL CENTRO NAS IS EL CENTRO NAVAL AIR STATION
N/A    - NOT AVAILABLE





USA.gov is the U.S. government's official web portal to all federal, state and local government web resources and services.